EN

Hourly Weather Dargacz

Today, 30 September, Wednesday

Time Temperature Precipitation Wind Pressure Humidity
00:00 +13°C° 0 mm 2 mps 756 mmHg 92%
01:00 +13°C° 0 mm 2 mps 756 mmHg 91%
02:00 +13°C° 0 mm 2 mps 756 mmHg 90%
03:00 +13°C° 0 mm 1 mps 756 mmHg 89%
04:00 +13°C° 0 mm 1 mps 755 mmHg 88%
05:00 +14°C° 0 mm 1 mps 756 mmHg 88%
06:00 +14°C° 0 mm 1 mps 756 mmHg 89%
07:00 +14°C° 0 mm 1 mps 756 mmHg 87%
08:00 +15°C° 0 mm 2 mps 756 mmHg 81%
09:00 +17°C° 0 mm 2 mps 756 mmHg 74%
10:00 +18°C° 0 mm 2 mps 756 mmHg 68%
11:00 +18°C° 0 mm 3 mps 756 mmHg 64%
12:00 +19°C° 0 mm 3 mps 756 mmHg 61%
13:00 +19°C° 0 mm 3 mps 756 mmHg 57%
14:00 +19°C° 0 mm 3 mps 755 mmHg 60%
15:00 +18°C° 0 mm 3 mps 755 mmHg 62%
16:00 +17°C° 0 mm 4 mps 755 mmHg 65%
17:00 +16°C° 0 mm 3 mps 755 mmHg 70%
18:00 +13°C° 0 mm 3 mps 755 mmHg 75%
19:00 +12°C° 0 mm 3 mps 755 mmHg 80%
20:00 +13°C° 0 mm 2 mps 754 mmHg 84%
21:00 +12°C° 0 mm 2 mps 754 mmHg 87%
22:00 +12°C° 0 mm 2 mps 754 mmHg 90%
23:00 +12°C° 0 mm 2 mps 754 mmHg 91%

Tomorrow, 1 October, Thursday

Time Temperature Precipitation Wind Pressure Humidity
00:00 +12°C° 0 mm 2 mps 753 mmHg 92%
01:00 +13°C° 0 mm 2 mps 753 mmHg 92%
02:00 +13°C° 0 mm 2 mps 753 mmHg 93%
03:00 +13°C° 0 mm 2 mps 752 mmHg 94%
04:00 +13°C° 0 mm 2 mps 751 mmHg 95%
05:00 +13°C° 0 mm 3 mps 751 mmHg 94%
06:00 +13°C° 0 mm 3 mps 751 mmHg 93%
07:00 +13°C° 0 mm 3 mps 751 mmHg 92%
08:00 +14°C° 0 mm 3 mps 751 mmHg 82%
09:00 +16°C° 0 mm 3 mps 750 mmHg 72%
10:00 +17°C° 0 mm 4 mps 750 mmHg 61%
11:00 +18°C° 0 mm 4 mps 750 mmHg 58%
12:00 +19°C° 0 mm 4 mps 749 mmHg 55%
13:00 +20°C° 0 mm 4 mps 749 mmHg 51%
14:00 +19°C° 0 mm 4 mps 749 mmHg 54%
15:00 +19°C° 0 mm 4 mps 749 mmHg 57%
16:00 +18°C° 0 mm 4 mps 748 mmHg 60%
17:00 +17°C° 0 mm 4 mps 748 mmHg 63%
18:00 +15°C° 0 mm 4 mps 749 mmHg 67%
19:00 +14°C° 0 mm 3 mps 749 mmHg 71%
20:00 +14°C° 0 mm 3 mps 749 mmHg 70%
21:00 +14°C° 0 mm 3 mps 749 mmHg 69%
22:00 +14°C° 0 mm 3 mps 749 mmHg 68%
23:00 +13°C° 0 mm 3 mps 749 mmHg 72%

Day after tomorrow, 2 October, Friday

Time Temperature Precipitation Wind Pressure Humidity
00:00 +12°C° 0 mm 3 mps 749 mmHg 77%
01:00 +12°C° 0 mm 3 mps 749 mmHg 81%
02:00 +11°C° 0 mm 3 mps 749 mmHg 85%
03:00 +11°C° 0 mm 3 mps 749 mmHg 89%
04:00 +11°C° 0 mm 3 mps 749 mmHg 93%
05:00 +11°C° 0 mm 4 mps 749 mmHg 91%
06:00 +11°C° 0 mm 4 mps 749 mmHg 90%
07:00 +11°C° 0 mm 4 mps 749 mmHg 88%
08:00 +13°C° 0 mm 4 mps 750 mmHg 81%
09:00 +14°C° 0 mm 5 mps 750 mmHg 75%
10:00 +16°C° 0 mm 5 mps 750 mmHg 68%
11:00 +16°C° 0 mm 5 mps 750 mmHg 66%
12:00 +17°C° 0 mm 5 mps 750 mmHg 63%
13:00 +19°C° 0 mm 5 mps 750 mmHg 61%
14:00 +17°C° 0 mm 5 mps 750 mmHg 63%
15:00 +17°C° 0 mm 5 mps 750 mmHg 65%
16:00 +17°C° 0 mm 5 mps 750 mmHg 67%
17:00 +17°C° 0 mm 4 mps 750 mmHg 72%
18:00 +14°C° 0 mm 4 mps 750 mmHg 77%
19:00 +13°C° 0 mm 4 mps 750 mmHg 82%
20:00 +13°C° 0 mm 4 mps 750 mmHg 82%
21:00 +13°C° 0 mm 4 mps 750 mmHg 83%
22:00 +13°C° 0 mm 4 mps 750 mmHg 83%
23:00 +12°C° 0 mm 5 mps 750 mmHg 85%

3 October, Saturday

Time Temperature Precipitation Wind Pressure Humidity
00:00 +12°C° 0 mm 5 mps 750 mmHg 86%
01:00 +12°C° 0 mm 5 mps 749 mmHg 88%
02:00 +12°C° 0 mm 5 mps 749 mmHg 89%
03:00 +12°C° 0 mm 5 mps 749 mmHg 90%
04:00 +11°C° 0 mm 6 mps 749 mmHg 90%
05:00 +11°C° 0 mm 6 mps 749 mmHg 89%
06:00 +11°C° 0 mm 6 mps 748 mmHg 87%
07:00 +11°C° 0 mm 7 mps 748 mmHg 86%
08:00 +12°C° 0 mm 7 mps 748 mmHg 80%
09:00 +14°C° 0 mm 7 mps 748 mmHg 74%
10:00 +16°C° 0 mm 8 mps 747 mmHg 69%
11:00 +17°C° 0 mm 8 mps 747 mmHg 65%
12:00 +18°C° 0 mm 8 mps 747 mmHg 62%
13:00 +20°C° 0 mm 8 mps 746 mmHg 59%
14:00 +20°C° 0 mm 8 mps 746 mmHg 61%
15:00 +20°C° 0 mm 8 mps 746 mmHg 63%
16:00 +18°C° 0 mm 7 mps 746 mmHg 65%
17:00 +18°C° 0 mm 7 mps 745 mmHg 67%
18:00 +18°C° 0 mm 7 mps 745 mmHg 70%
19:00 +17°C° 0 mm 7 mps 745 mmHg 72%
20:00 +17°C° 0 mm 7 mps 745 mmHg 74%
21:00 +17°C° 0 mm 7 mps 745 mmHg 76%
22:00 +16°C° 0 mm 7 mps 744 mmHg 79%
23:00 +16°C° 0 mm 7 mps 744 mmHg 79%

4 October, Sunday

Time Temperature Precipitation Wind Pressure Humidity
00:00 +16°C° 0 mm 7 mps 743 mmHg 79%
01:00 +16°C° 0 mm 7 mps 743 mmHg 79%
02:00 +16°C° 0 mm 7 mps 742 mmHg 79%
03:00 +16°C° 0 mm 7 mps 742 mmHg 78%
04:00 +16°C° 0 mm 7 mps 741 mmHg 78%
05:00 +16°C° 0 mm 7 mps 741 mmHg 77%
06:00 +17°C° 0 mm 8 mps 741 mmHg 75%
07:00 +17°C° 0 mm 8 mps 740 mmHg 74%
08:00 +18°C° 0 mm 7 mps 741 mmHg 70%
09:00 +20°C° 0 mm 7 mps 742 mmHg 66%
10:00 +22°C° 0 mm 7 mps 742 mmHg 62%
11:00 +20°C° 0 mm 6 mps 743 mmHg 66%
12:00 +17°C° 0 mm 5 mps 744 mmHg 71%
13:00 +15°C° 0 mm 4 mps 744 mmHg 75%
14:00 +15°C° 0 mm 4 mps 745 mmHg 73%
15:00 +16°C° 0 mm 3 mps 746 mmHg 70%
16:00 +17°C° 0 mm 2 mps 746 mmHg 67%
17:00 +15°C° 0 mm 2 mps 747 mmHg 72%
18:00 +14°C° 0 mm 1 mps 747 mmHg 78%
19:00 +12°C° 0 mm 0 mps 748 mmHg 83%
20:00 +12°C° 0 mm 0 mps 748 mmHg 84%
21:00 +12°C° 0 mm 1 mps 748 mmHg 86%
22:00 +12°C° 0 mm 1 mps 748 mmHg 87%
23:00 +12°C° 0 mm 1 mps 748 mmHg 88%

5 October, Monday

Time Temperature Precipitation Wind Pressure Humidity
00:00 +12°C° 0 mm 2 mps 748 mmHg 89%
01:00 +10°C° 0 mm 2 mps 748 mmHg 90%
02:00 +10°C° 0 mm 2 mps 748 mmHg 91%
03:00 +10°C° 0 mm 3 mps 748 mmHg 91%
04:00 +10°C° 0 mm 3 mps 748 mmHg 92%
05:00 +10°C° 0 mm 3 mps 747 mmHg 92%
06:00 +11°C° 0 mm 3 mps 747 mmHg 92%
07:00 +11°C° 0 mm 4 mps 747 mmHg 92%
08:00 +13°C° 0 mm 4 mps 747 mmHg 86%
09:00 +15°C° 0 mm 4 mps 746 mmHg 81%
10:00 +17°C° 0 mm 4 mps 746 mmHg 76%
11:00 +18°C° 0.3 mm 4 mps 746 mmHg 71%
12:00 +19°C° 0.3 mm 4 mps 745 mmHg 65%
13:00 +20°C° 0.3 mm 4 mps 745 mmHg 60%
14:00 +19°C° 0.4 mm 4 mps 744 mmHg 63%
15:00 +19°C° 0.4 mm 4 mps 744 mmHg 67%
16:00 +18°C° 0.4 mm 4 mps 743 mmHg 71%
17:00 +17°C° 0.1 mm 3 mps 743 mmHg 77%
18:00 +16°C° 0.1 mm 3 mps 743 mmHg 84%
19:00 +14°C° 0.1 mm 3 mps 742 mmHg 90%
20:00 +13°C° 0 mm 3 mps 742 mmHg 90%
21:00 +14°C° 0 mm 2 mps 742 mmHg 89%
22:00 +14°C° 0 mm 2 mps 742 mmHg 89%
23:00 +14°C° 0.2 mm 2 mps 741 mmHg 90%
Show more

We Need Your Consent

Meteoprog and our Service Providers may store and access personal data such as cookies, device identifiers or other similar technologies on your device and process such data to personalise content and ads, as well as provide social media features and to analyse the traffic.

  • Store and/or access information on your device

    Cookies, device identifiers or other information can be stored or accessed on your device for the purposes indicated above.

  • Personalised ads and content, ad and content measurement, audience insights, and products development

    Ads and content can be personalised based on a profile. More data can be added to better personalise ads and content. Ad and content performance can be measured. Insights about the audience who saw the ads and content can be derived. Such data can be used to develop or improve user’s experience, systems and software.

By clicking ‘I Agree’ you will allow the use of indicated cookies, device identifiers, web beacons or other similar technologies. Your settings can be changed in the browser on your device.

For certain purposes, legitimate interests may be relied on, rather than consent. You can read more about this in our Privacy and Cookie Policy.